Richard Lloyd Jones Jr Airport
KRVS : now visible

Airfield :











YOU CAN JOIN US ON...

 
LOGIN :

Register | Disclaimer

   EN    FR    IT 

 









Legend :    VFR   Marginal VFR   IFR   Intensive IFR   Very Intensive IFR
Visi :
Ceiling :
>= 8 km
>= 3000ft
5 to 8 km
1000 to 3000 ft
1500m to 5 km
500 to 1000 ft
800 to 1500m
200 to 500 ft
< 800m
< 200 ft
Symbols :   Thunderstorms  Fog  Heavy snow  Heavy precipitations  Wind > 20 kt







- Airport Elevation : 638 ft


KRVS - Richard Lloyd Jones Jr

CURRENT METAR :
  • 211653Z 18013G18KT 10SM OVC032 27/22 A3004 RMK AO2 SLP173 T02720217

EXPIRED METARs :
  • 211634Z 18014KT 10SM OVC031 27/22 A3004 RMK AO2 T02670217
  • 211553Z 19010G21KT 10SM BKN027 OVC032 27/22 A3004 RMK AO2 SLP175 T02670217
  • 211453Z 18012KT 10SM SCT021 BKN027 OVC034 26/22 A3005 RMK AO2 RAB1359E09 SLP179 P0000 60045 T02560222 53003

TAF KRVS
Valid from the 21 at 12:00 until the 22 at 12:00 UTC


211125Z 2112/2212 17011KT P6SM BKN015 BKN040 BKN250
TEMPO 2112/2115 4SM -SHRA BKN007
FM211800 18012G20KT P6SM VCTS BKN025 BKN050CB
FM212300 17009KT P6SM SCT050 BKN250
No reported NOTAMs for that airfield.



MET'MAP, your aeronautical weather chart ! - Copyright ORBIFLY December 2007 - Disclaimer

ORBIFLY MET'MAP TEAM :

Programming & Development : Alexandra Zaïnal
Concept & Development : Baudouin d'Aumeries
Co-Development & Prog : Marc-Olivier Méhu
Technical & hardware support : Manuel Goepfert

Contact : metmap@orbifly.com




SOURCES & CREDITS :

   NOAA       Earth
Advisory